Alamo, Nevada Weather observations

Data are for observation ending at time listed.
 Day   Time    Ave.   Ave.  Ave.  Vector   Max.   Stn.    Total    Solar   Ave.  
  of    of     Air    Rel.  Wind   Wind    Wind   Baro.  Precip.   Rad.    Soil  
Year   Day     Temp.  Hum.  Speed  Dir.    Gust   Pres.                    Temp. 
2017   (PST)    F      %     mph   deg.    mph     mb.     in.     W/m2     F   
------------------------------------------------------------------------------
  22    7:40   36.5    89    3.2   187      7.9   896.9    0.00      14    37.2
  22    7:50   36.3    90    2.9   182      6.1   896.9    0.00      18    37.3
  22    8:00   36.3    91    1.4   183      3.8   896.8    0.00      22    37.3
  22    8:10   36.5    91    1.5   188      3.7   897.3    0.00      26    37.4
  22    8:20   36.6    91    1.4   183      4.7   897.3    0.00      15    37.5
  22    8:30   36.7    91    0.8   200      2.9   897.2    0.00      17    37.6
  22    8:40   36.9    90    1.7   191      4.5   897.5    0.00      16    37.7
  22    8:50   36.9    91    0.9   184      3.4   897.2    0.01      24    37.7
  22    9:00   37.0    91    1.5   188      7.0   897.2    0.00      27    37.8
  22    9:10   37.1    91    1.7   184      5.6   897.4    0.00      26    37.9
  22    9:20   37.3    92    1.6   182      4.8   897.0    0.00      28    38.0
  22    9:30   37.6    92    2.1   183      6.3   897.4    0.00      29    38.1
  22    9:40   38.0    91    1.7   182      8.9   897.2    0.00      41    38.1
  22    9:50   38.3    90    2.0   183      8.8   897.0    0.00      52    38.2
  22   10:00   38.8    90    1.9   179      9.1   897.2    0.01      78    38.4
  22   10:10   39.2    88    2.6   178      9.2   896.7    0.00      94    38.5
  22   10:20   39.6    86    1.9   182      7.5   896.8    0.00      90    38.7
  22   10:30   39.9    86    1.9   182      7.4   896.7    0.00     116    38.9
  22   10:40   39.5    86    2.5   173      9.3   896.5    0.00      92    39.1
  22   10:50   39.4    86    2.5   173      7.4   896.5    0.00      85    39.3
  22   11:00   39.2    87    2.6   175      8.9   896.3    0.00      63    39.4
  22   11:10   38.9    87    2.3   171      7.9   896.0    0.00      63    39.5
  22   11:20   39.0    87    2.1   174     10.0   896.0    0.00      77    39.6
  22   11:30   39.1    88    2.2   175      8.0   895.9    0.00      84    39.7
  22   11:40   38.8    88    3.0   170      9.2   895.8    0.00      71    39.7
  22   11:50   38.6    88    3.1   164     11.8   895.4    0.00      80    39.8
  22   12:00   38.4    88    3.1   174     11.0   895.1    0.00      97    39.8
  22   12:10   38.3    89    3.4   170      8.4   894.9    0.00     118    39.9
  22   12:20   38.4    90    2.7   173      9.6   894.8    0.00     120    39.9
  22   12:30   38.3    90    2.5   166      7.8   894.7    0.00      95    40.0
  22   12:40   38.3    90    2.8   170     11.2   894.6    0.00     122    40.1
  22   12:50   38.5    89    2.4   164      9.9   894.4    0.00      96    40.2
  22   13:00   38.3    90    3.1   176     14.7   893.5    0.00     104    40.2
  22   13:10   38.3    90    3.2   172     12.0   893.2    0.00     140    40.3
  22   13:20   38.5    90    2.9   165     11.8   892.5    0.01     201    40.4
  22   13:30   38.8    90    3.4   175     10.1   892.8    0.00     154    40.5
  22   13:40   38.9    90    3.8   178     10.6   892.7    0.00     129    40.7
  22   13:50   38.8    90    4.5   179     16.7   892.5    0.00     133    40.8
  22   14:00   38.6    90    4.6   178     11.0   892.5    0.00     124    40.9
  22   14:10   38.5    90    4.7   183     11.0   892.8    0.00      92    41.0
  22   14:20   38.3    91    3.9   181     14.0   892.8    0.00      75    41.0
  22   14:30   38.0    91    3.6   181     12.1   893.1    0.00      63    41.0
  22   14:40   37.9    92    3.3   182     11.0   893.0    0.00      54    40.9
  22   14:50   37.8    92    3.6   182     14.3   893.4    0.01      48    40.9
  22   15:00   37.7    92    2.3   176      7.5   893.3    0.00      34    40.8
  22   15:10   37.4    92    3.2   176      7.9   892.9    0.01      45    40.7
  22   15:20   37.3    92    2.9   178      8.1   892.8    0.00      49    40.6
  22   15:30   37.3    92    2.8   176     11.0   892.9    0.01      37    40.5
  22   15:40   37.2    92    3.5   173     12.4   892.7    0.00      27    40.5
  22   15:50   37.2    92    2.3   167      7.5   892.5    0.00      27    40.4
  22   16:00   37.2    91    3.0   168      8.7   892.4    0.00      28    40.3
  22   16:10   37.3    92    2.9   174      8.6   892.4    0.00      21    40.2
  22   16:20   37.3    92    2.4   176      8.2   892.5    0.00      12    40.1
  22   16:30   37.3    92    2.3   184      8.8   892.7    0.00       6    40.0
  22   16:40   37.4    92    2.1   174      7.8   892.6    0.00       2    39.9
  22   16:50   37.3    92    2.6   180      8.9   892.6    0.01       0    39.8
  22   17:00   37.4    92    3.1   186     11.2   892.5    0.00       0    39.8
  22   17:10   37.4    92    3.0   183      9.3   892.4    0.00       0    39.7
  22   17:20   37.5    92    3.1   182      9.0   892.2    0.00       0    39.7
  22   17:30   37.5    92    3.8   183     10.5   892.2    0.00       0    39.6
  22   17:40   37.6    92    3.8   183     10.4   891.9    0.00       0    39.6
  22   17:50   37.7    92    4.4   183     11.1   891.8    0.00       0    39.5
  22   18:00   37.7    93    4.4   182     12.7   891.3    0.00       0    39.5
  22   18:10   37.8    94    4.7   184     16.7   891.2    0.01       0    39.4
  22   18:20   37.8    94    4.3   176     12.1   891.2    0.00       0    39.4
  22   18:30   37.7    94    3.8   180     12.5   891.0    0.00       0    39.4
  22   18:40   37.8    93    3.0   172     11.8   890.9    0.00       0    39.3
  22   18:50   38.1    93    3.3   166     11.2   890.5    0.00       0    39.3
  22   19:00   38.5    93    3.7   171     13.2   890.2    0.00       0    39.3
  22   19:10   38.7    93    3.5   181     14.7   890.2    0.00       0    39.3
  22   19:20   38.8    93    3.3   174     11.0   889.8    0.01       0    39.3
  22   19:30   38.9    93    3.5   172     10.7   889.4    0.00       0    39.3
  22   19:40   39.1    93    3.2   178     10.7   889.4    0.00       0    39.3
  22   19:50   39.3    93    3.0   172     11.8   889.4    0.00       0    39.4
  22   20:00   39.4    92    3.6   180     12.1   890.0    0.00       0    39.4
  22   20:10   39.4    92    3.5   181     12.7   890.1    0.00       0    39.4
  22   20:20   39.4    93    2.8   175     10.2   889.8    0.00       0    39.5
  22   20:30   39.4    93    3.3   170     17.5   889.6    0.00       0    39.5
  22   20:40   39.5    93    3.1   164      9.3   889.3    0.00       0    39.5
  22   20:50   39.5    92    3.3   167     12.2   889.2    0.00       0    39.5
  22   21:00   39.6    92    2.8   172     12.3   889.2    0.00       0    39.6
  22   21:10   39.6    92    3.2   168      9.1   889.1    0.00       0    39.6
  22   21:20   39.7    92    2.7   174      8.3   889.1    0.00       0    39.6
  22   21:30   39.7    92    3.2   177     11.6   889.0    0.00       0    39.6
  22   21:40   39.8    92    2.9   174     11.7   888.8    0.00       0    39.7
  22   21:50   39.9    92    2.6   168      9.5   888.9    0.00       0    39.7
  22   22:00   39.9    91    2.6   168      9.3   889.0    0.00       0    39.7
  22   22:10   39.9    91    2.3   174      8.2   888.8    0.00       0    39.7
  22   22:20   39.9    91    2.7   168     12.8   888.8    0.00       0    39.7
  22   22:30   40.0    91    2.7   164      9.3   888.9    0.00       0    39.7
  22   22:40   40.0    91    3.2   178      9.1   888.9    0.00       0    39.7
  22   22:50   40.0    92    2.6   177      9.3   888.9    0.00       0    39.8
  22   23:00   39.9    92    2.8   172     10.4   888.8    0.00       0    39.8
  22   23:10   39.9    92    2.2   172      9.9   888.9    0.00       0    39.8
  22   23:20   39.8    92    2.4   171      9.6   888.6    0.00       0    39.8
  22   23:30   39.9    91    2.6   172      9.5   888.5    0.00       0    39.8
  22   23:40   40.0    92    1.9   165      6.4   888.6    0.00       0    39.8
  22   23:50   39.9    92    2.0   176      8.6   888.4    0.00       0    39.8
  23    0:00   39.9    92    2.4   175      8.0   888.2    0.00       0    39.8
  23    0:10   39.8    92    2.5   176      8.7   887.8    0.00       0    39.8
  23    0:20   39.8    92    2.5   176      8.8   887.9    0.00       0    39.8
  23    0:30   39.9    92    2.1   172     11.2   887.8    0.00       0    39.8
  23    0:40   40.0    92    2.0   171      7.9   887.7    0.00       0    39.8
  23    0:50   40.1    92    2.0   181      8.1   887.5    0.00       0    39.9
  23    1:00   40.0    92    1.8   180      9.3   887.4    0.00       0    39.9
  23    1:10   39.9    92    1.9   189      6.2   887.0    0.00       0    39.9
  23    1:20   40.0    92    2.2   172      6.3   886.8    0.00       0    39.8
  23    1:30   40.3    92    2.2   170      8.2   886.7    0.00       0    39.8
  23    1:40   40.4    92    2.1   166      9.1   886.6    0.00       0    39.8
  23    1:50   40.4    92    2.0   184      8.8   886.6    0.00       0    39.8
  23    2:00   40.4    93    2.2   190      6.3   886.8    0.00       0    39.8
  23    2:10   40.4    93    2.0   190      5.8   886.6    0.00       0    39.9
  23    2:20   40.5    93    1.9   176      5.8   886.3    0.00       0    39.9
  23    2:30   40.6    93    2.2   177      9.9   886.1    0.00       0    40.0
  23    2:40   40.7    93    1.9   173      9.0   886.0    0.00       0    40.0
  23    2:50   40.9    93    2.0   177      5.7   885.7    0.00       0    40.0
  23    3:00   41.0    93    1.8   173      6.8   885.5    0.00       0    40.1
  23    3:10   41.1    93    1.4   183      4.9   885.2    0.01       0    40.1
  23    3:20   41.1    93    1.8   173      6.7   884.9    0.00       0    40.2
  23    3:30   41.2    93    2.3   171      8.0   884.8    0.00       0    40.2
  23    3:40   41.3    93    2.3   187      7.5   884.8    0.00       0    40.3
  23    3:50   41.3    93    2.7   185      7.1   884.9    0.01       0    40.3
  23    4:00   41.2    93    4.1   183      8.1   885.3    0.02       0    40.3
  23    4:10   41.2    92    3.3   183      8.3   885.3    0.01       0    40.4
  23    4:20   41.0    92    1.5   180      6.1   885.1    0.00       0    40.4
  23    4:30   40.8    92    1.7   187      5.3   885.0    0.00       0    40.4
  23    4:40   40.8    92    1.4   167      6.1   884.8    0.00       0    40.4
  23    4:50   40.8    91    0.9   167      5.4   884.7    0.00       0    40.4
  23    5:00   40.8    90    1.8   179      7.3   884.9    0.01       0    40.3
  23    5:10   40.9    88    2.6   182      8.6   885.1    0.00       0    40.3
  23    5:20   40.8    87    1.3   170      7.2   884.8    0.00       0    40.2
  23    5:30   40.3    88    0.6   189      2.8   884.9    0.00       0    40.2
  23    5:40   40.6    87    1.0   180      4.5   884.8    0.00       0    40.1
  23    5:50   41.2    81    2.5   181      7.0   884.7    0.01       0    40.0
  23    6:00   41.7    78    4.1   187      9.3   884.8    0.00       0    40.0
  23    6:10   41.3    76    5.4   200     12.4   884.9    0.00       0    39.9
  23    6:20   41.0    73    5.4   196     17.2   885.0    0.00       0    39.7
  23    6:30   42.4    56    9.3   206     21.5   884.9    0.00       0    39.6
  23    6:40   42.5    54    9.8   201     20.2   884.9    0.00       0    39.4
  23    6:50   42.4    53   10.8   203     20.5   884.7    0.00       0    39.3
  23    7:00   42.4    52   10.8   203     23.5   884.4    0.00       0    39.1
  23    7:10   42.5    50    9.7   209     20.9   884.7    0.00       7    38.9
  23    7:20   42.3    50    7.5   207     19.7   885.1    0.00      16    38.8
  23    7:30   42.5    48    8.3   208     16.4   885.2    0.00      30    38.6

Return to Alamo, Nevada graphs page.


Western Regional Climate Center,wrcc@dri.edu